Location: Ay?beleni
(36.6500°N, 30.3000°E)
Time: 04:01:33
(UTC+00:00)

SJ-11-01 - Pass Details

Date: 16 October 2021
Orbit: 684 x 700 km, 97.9° (Epoch: 08 December)

Event Time Altitude Azimuth Distance (km) Brightness Sun altitude
Rises 16:03:26 0° 153° (SSE) 3,035 7.4 -9.3°
Reaches altitude 10° 16:05:42 10° 148° (SSE) 2,125 6.5 -9.7°
Maximum altitude 16:10:12 50° 74° (ENE) 875 4.4 -10.6°
Drops below altitude 10° 16:14:44 10° 359° (N) 2,147 6.8 -11.5°
Sets 16:17:02 0° 354° (N) 3,071 7.7 -12.0°
